Weather History for LGAD - March, 2013

Change the Weather History Date:

Sunday, March 3, 2013

  Actual Average Record
Temperature  
Mean Temperature 53 °F -  
Max Temperature 60 °F 60 °F 71 °F (2002)
Min Temperature 46 °F 43 °F 41 °F (2012)
Degree Days  
Heating Degree Days 12    
Growing Degree Days 3 (Base 50)    
Moisture  
Dew Point 43 °F    
Average Humidity 73    
Maximum Humidity 93    
Minimum Humidity 40    
Precipitation  
Precipitation 0.00 in - - ()
Sea Level Pressure  
Sea Level Pressure 29.86 in    
Wind  
Wind Speed 7 mph ()    
Max Wind Speed 18 mph    
Max Gust Speed -    
Visibility 6.1 miles    
Events Rain    
Averages and records for this station are not official NWS values.
T = Trace of Precipitation, MM = Missing Value Source: Averaged Metar Reports

Daily Weather History Graph

Daily Weather History Graph

Search for Another Location

Airport or City:

Trip Planner

Search our weather history database for the weather conditions in past years. The results will help you decide how hot, cold, wet, or windy it might be!

Date:

Astronomy

Mar. 03, 2013 Rise Set
Actual Time 7:03 AM EET 6:30 PM EET
Civil Twilight 6:37 AM EET 6:56 PM EET
Nautical Twilight 6:06 AM EET 7:27 PM EET
Astronomical Twilight 5:36 AM EET 7:57 PM EET
Moon No Moon Rise 10:10 AM EET (3/3)
Length of Visible Light 12h 19m
Length of Day
11h 26m
Waning Gibbous, 67% of the Moon is Illuminated
Mar 3
Waning Gibbous
Mar 4
Last Quarter
Mar 11
New
Mar 19
First Quarter
Mar 27
Full

Hourly Weather History & Observations

Time (EET) Temp. Dew Point Humidity Pressure Visibility Wind Dir Wind Speed Gust Speed Precip Events Conditions
12:20 AM 48.2 °F 44.6 °F 87% 29.86 in 5.6 mi ESE 13.8 mph - N/A Rain Light Rain
12:50 AM 48.2 °F 44.6 °F 87% 29.86 in 5.6 mi ESE 11.5 mph - N/A Rain Light Rain
1:20 AM 48.2 °F 46.4 °F 93% 29.83 in 5.6 mi ENE 9.2 mph - N/A Rain Light Rain
1:50 AM 48.2 °F 44.6 °F 87% 29.83 in 6.2 mi ENE 10.4 mph - N/A   Overcast
2:00 AM 48 °F 44 °F 81% 29.84 in 6 mi East 9.2 mph - - Rain Light Rain
2:20 AM 48.2 °F 44.6 °F 87% 29.83 in 6.2 mi East 8.1 mph - N/A   Overcast
2:50 AM 48.2 °F 42.8 °F 82% 29.83 in 6.2 mi ENE 9.2 mph - N/A   Overcast
3:20 AM 48.2 °F 42.8 °F 82% 29.80 in 6.2 mi ESE 6.9 mph - N/A   Overcast
3:50 AM 48.2 °F 42.8 °F 82% 29.80 in 6.2 mi NNE 5.8 mph - N/A   Overcast
4:20 AM 46.4 °F 42.8 °F 87% 29.80 in 6.2 mi Calm Calm - N/A   Overcast
4:50 AM 48.2 °F 42.8 °F 82% 29.80 in 6.2 mi Calm Calm - N/A   Overcast
5:20 AM 46.4 °F 42.8 °F 87% 29.80 in 6.2 mi Calm Calm - N/A   Overcast
5:50 AM 48.2 °F 42.8 °F 82% 29.80 in 6.2 mi Calm Calm - N/A   Overcast
6:20 AM 48.2 °F 44.6 °F 87% 29.80 in 5.6 mi Calm Calm - N/A Rain Light Rain
6:50 AM 46.4 °F 44.6 °F 93% 29.80 in 5.6 mi Calm Calm - N/A Rain Light Rain
7:20 AM 48.2 °F 44.6 °F 87% 29.80 in 5.6 mi Calm Calm - N/A Rain Light Rain
7:50 AM 48.2 °F 44.6 °F 87% 29.80 in 6.2 mi Calm Calm - N/A   Mostly Cloudy
8:00 AM 47 °F 44 °F 86% 29.83 in 6 mi Calm Calm - - Rain Light Rain
8:20 AM 48.2 °F 44.6 °F 87% 29.83 in 6.2 mi Calm Calm - N/A   Mostly Cloudy
8:50 AM 48.2 °F 44.6 °F 87% 29.83 in 6.2 mi North 6.9 mph - N/A   Mostly Cloudy
9:20 AM 50.0 °F 46.4 °F 87% 29.83 in 6.2 mi North 6.9 mph - N/A   Mostly Cloudy
10:20 AM 53.6 °F 44.6 °F 72% 29.83 in 6.2 mi North 9.2 mph - N/A   Mostly Cloudy
10:50 AM 55.4 °F 44.6 °F 67% 29.86 in 6.2 mi North 11.5 mph - N/A   Scattered Clouds
11:20 AM 57.2 °F 42.8 °F 59% 29.86 in 6.2 mi North 16.1 mph - N/A   Scattered Clouds
11:50 AM 57.2 °F 42.8 °F 59% 29.86 in 6.2 mi NNW 18.4 mph - N/A   Partly Cloudy
12:20 PM 59.0 °F 42.8 °F 55% 29.86 in 6.2 mi NNW 18.4 mph - N/A   Partly Cloudy
12:50 PM 59.0 °F 42.8 °F 55% 29.83 in 6.2 mi NNW 17.3 mph - N/A   Partly Cloudy
1:50 PM 60.8 °F 42.8 °F 52% 29.86 in 6.2 mi NNW 13.8 mph - N/A   Partly Cloudy
2:00 PM 60 °F 42 °F 40% 29.86 in 6 mi NNW 13.8 mph - -   Scattered Clouds
2:20 PM 60.8 °F 42.8 °F 52% 29.86 in 6.2 mi NNW 13.8 mph - N/A   Partly Cloudy
2:50 PM 60.8 °F 42.8 °F 52% 29.86 in 6.2 mi NNW 10.4 mph - N/A   Partly Cloudy
3:20 PM 60.8 °F 42.8 °F 52% 29.86 in 6.2 mi NNW 10.4 mph - N/A   Partly Cloudy
3:50 PM 60.8 °F 42.8 °F 52% 29.86 in 6.2 mi NNW 10.4 mph - N/A   Partly Cloudy
4:20 PM 60.8 °F 42.8 °F 52% 29.86 in 6.2 mi NNW 10.4 mph - N/A   Partly Cloudy
4:50 PM 59.0 °F 42.8 °F 55% 29.86 in 6.2 mi NNW 9.2 mph - N/A   Partly Cloudy
5:20 PM 59.0 °F 42.8 °F 55% 29.86 in 6.2 mi NNW 9.2 mph - N/A   Partly Cloudy
5:50 PM 57.2 °F 41.0 °F 55% 29.89 in 6.2 mi NNE 8.1 mph - N/A   Partly Cloudy
6:20 PM 55.4 °F 41.0 °F 58% 29.89 in 6.2 mi NNE 8.1 mph - N/A   Partly Cloudy
6:50 PM 51.8 °F 41.0 °F 67% 29.89 in 6.2 mi North 5.8 mph - N/A   Partly Cloudy
7:20 PM 50.0 °F 41.0 °F 71% 29.89 in 6.2 mi North 5.8 mph - N/A   Partly Cloudy
7:50 PM 50.0 °F 41.0 °F 71% 29.92 in 6.2 mi NNE 4.6 mph - N/A   Partly Cloudy
8:00 PM 51 °F 41 °F 60% 29.93 in 6 mi NNE 4.6 mph - -   Scattered Clouds
8:20 PM 50.0 °F 41.0 °F 71% 29.92 in 6.2 mi NNE 4.6 mph - N/A   Partly Cloudy
8:50 PM 50.0 °F 41.0 °F 71% 29.95 in 6.2 mi NNE 4.6 mph - N/A   Partly Cloudy
9:20 PM 48.2 °F 41.0 °F 76% 29.95 in 6.2 mi NNE 4.6 mph - N/A   Partly Cloudy
9:50 PM 48.2 °F 41.0 °F 76% 29.95 in 6.2 mi North 5.8 mph - N/A   Partly Cloudy
10:20 PM 48.2 °F 41.0 °F 76% 29.95 in 6.2 mi North 5.8 mph - N/A   Partly Cloudy
10:50 PM 46.4 °F 41.0 °F 81% 29.98 in 6.2 mi Calm Calm - N/A   Partly Cloudy
11:20 PM 46.4 °F 41.0 °F 81% 29.98 in 6.2 mi Calm Calm - N/A   Partly Cloudy
11:50 PM 46.4 °F 39.2 °F 76% 29.98 in 6.2 mi Calm Calm - N/A   Partly Cloudy